This is the latest recevied weather packets stored in our database for station/object KQ7A. If no packets are shown the sender has not sent any weather packets the latest 10 day(s).
| Time | Temp. | Humidity | Pressure | Rain* | Wind** | Luminosity | Snow |
|---|---|---|---|---|---|---|---|
| 1777926037 | 12.78° C | 69% | 1013.2 hPa | 0 mm | - | 433 W/m² | - |
| 1777925734 | 12.78° C | 68% | 1013.2 hPa | 0 mm | - | 327 W/m² | - |
| 1777925432 | 12.22° C | 68% | 1013 hPa | 0 mm | - | 254 W/m² | - |
| 1777925127 | 12.78° C | 69% | 1013 hPa | 0 mm | - | 196 W/m² | - |
| 1777924824 | 12.22° C | 73% | 1013.1 hPa | 0 mm | - | 136 W/m² | - |
| 1777924520 | 12.22° C | 74% | 1013.1 hPa | 0 mm | - | 140 W/m² | - |
| 1777924217 | 12.22° C | 75% | 1013.1 hPa | 0 mm | - | 144 W/m² | - |
| 1777923914 | 12.22° C | 74% | 1013 hPa | 0 mm | - | 131 W/m² | - |
| 1777923609 | 12.22° C | 72% | 1013.1 hPa | 0 mm | - | 100 W/m² | - |
| 1777923306 | 12.22° C | 70% | 1013 hPa | 0 mm | - | 94 W/m² | - |
| 1777923005 | 12.22° C | 66% | 1012.9 hPa | 0 mm | - | 115 W/m² | - |
| 1777922703 | 12.78° C | 66% | 1012.8 hPa | 0 mm | - | 135 W/m² | - |
| 1777922401 | 12.78° C | 65% | 1012.8 hPa | 0 mm | - | 153 W/m² | - |
| 1777922098 | 12.78° C | 61% | 1013.1 hPa | 0 mm | - | 147 W/m² | - |
| 1777921794 | 12.78° C | 63% | 1013 hPa | 0 mm | - | 148 W/m² | - |
| 1777921489 | 13.33° C | 63% | 1013 hPa | 0 mm | - | 210 W/m² | - |
| 1777921186 | 12.78° C | 60% | 1013 hPa | 0 mm | - | 243 W/m² | - |
| 1777920884 | 13.33° C | 60% | 1012.9 hPa | 0 mm | - | 263 W/m² | - |
| 1777920579 | 13.33° C | 66% | 1013 hPa | 0 mm | - | 301 W/m² | - |
| 1777920276 | 13.33° C | 63% | 1013 hPa | 0 mm | - | 342 W/m² | - |
| 1777919971 | 13.33° C | 63% | 1013 hPa | 0 mm | - | 471 W/m² | - |
| 1777919669 | 13.33° C | 62% | 1012.8 hPa | 0 mm | - | 805 W/m² | - |
| 1777919367 | 12.78° C | 68% | 1012.9 hPa | 0 mm | - | 515 W/m² | - |
| 1777919063 | 12.22° C | 70% | 1012.8 hPa | 0 mm | - | 320 W/m² | - |
| 1777918761 | 11.67° C | 71% | 1013 hPa | 0 mm | - | 343 W/m² | - |
* Rain latest hour (hover to see other rain measurements)
** Current wind speed in m/s (hover to see current wind gust speed)